DW0226 Weather Reports


Display with metric or nautical units.
time (UTC)temp
F
wind
direction
speed
MPH
gust
MPH
rain 1hr
in
rain 24hr
in
rain mn
in
humidity
%
barometer
mb
20260507223028 57 215 0.0 3.0 0.00 0.02 0.02 65 1008.5
20260507222032 56 226 3.0 4.0 0.00 0.02 0.02 66 1008.3
20260507221040 56 240 2.0 6.0 0.00 0.02 0.02 66 1008.1
20260507220026 56 171 1.0 5.0 0.00 0.02 0.02 68 1008.3
20260507215019 57 171 1.0 5.0 0.00 0.02 0.02 69 1008.3
20260507214042 56 207 3.0 5.0 0.00 0.02 0.02 68 1008.6
20260507213030 56 173 1.0 3.0 0.01 0.02 0.02 69 1008.6
20260507212037 55 173 2.0 5.0 0.01 0.02 0.02 70 1008.6
20260507211028 55 229 0.0 4.0 0.01 0.02 0.02 75 1008.7
20260507210019 55 196 1.0 4.0 0.01 0.02 0.02 77 1008.4
20260507205030 54 140 2.0 3.0 0.01 0.02 0.02 74 1008.7
20260507204022 54 140 0.0 1.0 0.01 0.02 0.02 78 1008.5
20260507203032 55 60 0.0 0.0 0.00 0.01 0.01 81 1008.2
20260507202022 54 60 0.0 1.0 0.00 0.01 0.01 76 1008.6
20260507201025 54 213 0.0 3.0 0.00 0.01 0.01 74 1009.2
20260507200038 54 213 1.0 3.0 0.00 0.01 0.01 74 1009.0
20260507195024 55 109 1.0 3.0 0.00 0.01 0.01 78 1008.1
20260507194031 55 90 1.0 2.0 0.00 0.01 0.01 71 1008.5
20260507193044 55 132 0.0 2.0 0.00 0.01 0.01 69 1008.8
20260507192050 55 115 1.0 2.0 0.00 0.01 0.01 73 1008.8
20260507191020 55 125 0.0 1.0 0.00 0.01 0.01 72 1009.2
20260507190031 56 84 0.0 0.0 0.00 0.01 0.01 76 1009.0
20260507185021 56 84 0.0 2.0 0.00 0.01 0.01 68 1009.1
20260507184031 56 70 1.0 3.0 0.00 0.01 0.01 68 1008.9
20260507183047 56 86 0.0 5.0 0.00 0.01 0.01 62 1009.4
20260507182022 57 63 0.0 2.0 0.00 0.01 0.01 64 1009.2
20260507181030 56 74 1.0 5.0 0.01 0.01 0.01 67 1009.3
20260507180021 56 90 2.0 5.0 0.01 0.01 0.01 67 1009.5
20260507175031 56 93 4.0 6.0 0.01 0.01 0.01 67 1009.6
20260507174019 56 73 3.0 4.0 0.01 0.01 0.01 73 1009.5
20260507173028 56 95 2.0 5.0 0.01 0.01 0.01 73 1009.8
20260507172059 56 65 0.0 3.0 0.01 0.01 0.01 72 1010.1
20260507171024 57 75 1.0 3.0 0.00 0.00 0.00 67 1010.2
20260507170034 57 32 1.0 4.0 0.00 0.01 0.00 67 1010.3
20260507165021 57 55 0.0 4.0 0.00 0.01 0.00 64 1010.2
20260507164029 58 70 1.0 4.0 0.00 0.01 0.00 63 1010.3
20260507163025 58 37 0.0 6.0 0.00 0.01 0.00 67 1010.4
20260507162033 58 101 2.0 10.0 0.00 0.01 0.00 65 1010.4
20260507161022 58 32 0.0 7.0 0.00 0.01 0.00 60 1010.6
20260507160050 59 54 1.0 9.0 0.00 0.06 0.00 65 1010.8
20260507155023 60 5 0.0 3.0 0.00 0.06 0.00 65 1010.6
20260507154051 59 33 0.0 3.0 0.00 0.06 0.00 66 1010.6
20260507153039 58 67 0.0 6.0 0.00 0.06 0.00 65 1010.7
20260507152044 58 290 0.0 3.0 0.00 0.06 0.00 65 1010.8
20260507151050 58 49 1.0 7.0 0.00 0.06 0.00 64 1010.9
20260507150021 59 315 0.0 2.0 0.00 0.07 0.00 66 1010.8
20260507145029 59 5 0.0 4.0 0.00 0.07 0.00 67 1010.9
20260507144018 59 80 0.0 4.0 0.00 0.07 0.00 66 1011.0
20260507143024 59 5 1.0 7.0 0.00 0.07 0.00 65 1011.0
20260507142017 60 292 0.0 2.0 0.00 0.07 0.00 68 1011.0
20260507141025 59 295 0.0 4.0 0.00 0.07 0.00 67 1011.0
20260507140030 59 348 0.0 2.0 0.00 0.08 0.00 68 1011.1
20260507135100 59 325 1.0 7.0 0.00 0.08 0.00 65 1011.1
20260507134028 59 51 2.0 11.0 0.00 0.08 0.00 66 1011.0
20260507133019 59 110 0.0 2.0 0.00 0.08 0.00 69 1011.0
20260507132048 59 325 0.0 9.0 0.00 0.08 0.00 69 1011.0
20260507124035 57 36 0.0 6.0 0.00 0.08 0.00 81 1010.9
20260507123023 57 60 2.0 5.0 0.00 0.08 0.00 83 1010.8
20260507122029 56 27 0.0 10.0 0.00 0.08 0.00 84 1010.4
20260507121022 56 57 0.0 2.0 0.00 0.08 0.00 86 1010.6
20260507120030 56 345 0.0 4.0 0.00 0.08 0.00 86 1010.9
20260507115036 56 56 0.0 2.0 0.00 0.08 0.00 87 1010.9
20260507114022 56 67 1.0 4.0 0.00 0.08 0.00 87 1010.8
20260507113036 55 19 0.0 1.0 0.00 0.08 0.00 88 1010.6
20260507112025 55 72 0.0 2.0 0.00 0.08 0.08 89 1010.8
20260507111029 55 325 0.0 1.0 0.00 0.08 0.08 88 1010.5
20260507110034 55 5 0.0 1.0 0.00 0.08 0.08 89 1010.4
20260507105025 55 5 0.0 0.0 0.00 0.08 0.08 89 1010.8
20260507104031 55 59 0.0 1.0 0.00 0.08 0.08 89 1010.3
20260507103024 55 59 1.0 6.0 0.00 0.08 0.08 89 1009.6
20260507102031 56 31 0.0 4.0 0.00 0.08 0.08 89 1009.7
20260507101023 56 26 0.0 0.0 0.00 0.08 0.08 89 1010.0
20260507100054 57 311 0.0 1.0 0.00 0.08 0.08 88 1010.2
20260507095019 57 311 0.0 2.0 0.00 0.08 0.08 88 1009.6
20260507094030 57 300 0.0 3.0 0.00 0.08 0.08 87 1009.6
20260507093042 57 317 0.0 3.0 0.00 0.08 0.08 87 1009.5
20260507092048 57 306 0.0 6.0 0.00 0.08 0.08 87 1009.6
20260507091055 57 295 1.0 5.0 0.00 0.08 0.08 86 1009.6
20260507090022 58 304 0.0 2.0 0.00 0.08 0.08 86 1009.4
20260507085037 58 306 1.0 5.0 0.00 0.08 0.08 86 1009.5
20260507084024 58 28 0.0 5.0 0.00 0.08 0.08 86 1009.3
20260507083032 58 303 0.0 3.0 0.00 0.08 0.08 88 1009.4
20260507082020 58 300 1.0 4.0 0.00 0.08 0.08 88 1009.2
20260507081035 58 331 0.0 0.0 0.00 0.08 0.08 89 1008.8
20260507080023 59 284 0.0 3.0 0.00 0.08 0.08 89 1008.7
20260507075033 59 41 0.0 2.0 0.00 0.08 0.08 89 1008.5
20260507074023 59 355 0.0 9.0 0.00 0.08 0.08 89 1008.6
20260507073055 59 323 2.0 8.0 0.00 0.08 0.08 90 1009.1
20260507072020 60 312 0.0 7.0 0.00 0.08 0.08 90 1008.9
20260507071028 60 314 0.0 9.0 0.00 0.08 0.08 90 1008.8
20260507070059 60 311 0.0 6.0 0.00 0.08 0.08 91 1008.6
20260507065028 61 305 3.0 6.0 0.00 0.08 0.08 91 1008.3
20260507064016 61 63 0.0 4.0 0.00 0.08 0.08 91 1007.4
20260507063029 61 315 2.0 6.0 0.00 0.08 0.08 91 1007.3
20260507062036 62 47 0.0 2.0 0.00 0.08 0.08 91 1007.0
20260507061027 62 313 0.0 2.0 0.00 0.08 0.08 91 1007.5
20260507060035 62 26 0.0 2.0 0.00 0.08 0.08 91 1007.5
20260507055043 63 302 0.0 1.0 0.00 0.08 0.08 91 1008.0
20260507054028 63 62 0.0 3.0 0.00 0.08 0.08 91 1007.7
20260507053023 64 331 0.0 5.0 0.00 0.08 0.08 93 1008.0
20260507052029 64 284 0.0 4.0 0.00 0.08 0.08 94 1008.0
20260507051037 63 278 0.0 2.0 0.00 0.08 0.08 94 1008.1
20260507050025 63 159 0.0 0.0 0.00 0.08 0.08 94 1007.9
20260507045019 63 159 0.0 0.0 0.00 0.08 0.08 94 1007.8
20260507044047 62 159 0.0 0.0 0.00 0.08 0.08 93 1007.8
20260507043034 62 159 0.0 0.0 0.00 0.08 0.08 93 1008.1
20260507042021 62 159 0.0 0.0 0.00 0.08 0.08 93 1008.0
20260507041034 62 159 0.0 0.0 0.00 0.08 0.08 93 1007.7
20260507040024 63 159 0.0 0.0 0.00 0.08 0.08 93 1007.8
20260507035033 63 159 0.0 0.0 0.00 0.08 0.08 93 1007.9
20260507034024 62 159 0.0 0.0 0.00 0.08 0.08 93 1007.9
20260507033032 62 159 0.0 0.0 0.00 0.08 0.08 93 1008.3
20260507032022 62 159 0.0 0.0 0.00 0.08 0.08 92 1007.8
20260507031029 62 159 0.0 0.0 0.00 0.08 0.08 92 1007.4
20260507030023 63 159 0.0 0.0 0.00 0.08 0.08 92 1007.2
20260507025029 63 159 0.0 0.0 0.00 0.08 0.08 92 1006.9
20260507024038 63 159 0.0 0.0 0.00 0.08 0.08 92 1007.1
20260507023027 63 159 0.0 0.0 0.00 0.08 0.08 92 1007.2
20260507022017 63 159 0.0 0.0 0.00 0.08 0.08 91 1007.5
20260507021027 63 159 0.0 0.0 0.00 0.08 0.08 91 1007.8
20260507020038 63 159 0.0 0.0 0.00 0.08 0.08 90 1008.0
20260507015021 63 159 0.0 0.0 0.00 0.08 0.08 90 1007.7
20260507014033 63 159 0.0 0.0 0.00 0.08 0.08 89 1007.8
20260507013021 64 159 0.0 0.0 0.00 0.08 0.08 89 1007.6
20260507012027 64 159 0.0 0.0 0.00 0.08 0.08 88 1007.4
20260507010028 65 159 0.0 0.0 0.00 0.08 0.08 87 1007.6
20260507005055 66 159 0.0 0.0 0.00 0.08 0.08 84 1007.6
20260507004020 67 159 0.0 0.0 0.00 0.08 0.08 84 1007.5
20260507003050 68 159 0.0 0.0 0.00 0.08 0.08 82 1007.5
20260507002019 68 159 0.0 0.0 0.00 0.08 0.08 82 1007.5
20260507001027 69 159 0.0 1.0 0.00 0.08 0.08 81 1007.5
20260507000034 69 237 1.0 3.0 0.00 0.08 0.08 81 1007.2
20260506235020 70 240 0.0 1.0 0.00 0.08 0.08 80 1006.9
20260506234051 70 240 1.0 2.0 0.00 0.08 0.08 80 1007.1
20260506233023 70 233 0.0 2.0 0.00 0.08 0.08 81 1007.1
20260506232033 70 174 0.0 6.0 0.00 0.08 0.08 80 1007.1
20260506231029 70 184 1.0 3.0 0.00 0.08 0.08 80 1007.1
20260506230105 70 164 1.0 4.0 0.00 0.08 0.08 79 1006.9
20260506225047 70 278 1.0 6.0 0.00 0.08 0.08 79 1007.0
20260506224029 71 261 4.0 7.0 0.00 0.08 0.08 79 1007.0